Location: Mentone
(34.5413°N, 85.5351°W)
Time: 03:00:26
(UTC-06:00)

UOSAT-12 - Visible Passes

Search period start: 25 February 2017 00:00
Search period end: 07 March 2017 00:00
Orbit: 610 x 644 km, 64.6° (Epoch: 25 February)

Date Brightness Start Highest point End Pass type
(mag) Time Alt. Az. Time Alt. Az. Time Alt. Az.
27 Feb 10.3 05:06:31 10° NE 05:06:47 10° NE 05:07:02 10° NE visible
28 Feb 9.6 05:23:36 10° N 05:27:04 20° NE 05:30:32 10° E visible
01 Mar 8.4 05:42:43 10° NNW 05:47:08 43° ENE 05:51:32 10° SE visible
02 Mar 10.1 04:24:37 10° NNE 04:26:21 12° NE 04:28:04 10° ENE visible
03 Mar 9.4 04:42:49 10° N 04:46:35 24° NE 04:50:20 10° ESE visible
04 Mar 8.0 05:02:05 10° NNW 05:06:37 52° ENE 05:11:06 10° SE visible
04 Mar 8.3 19:09:52 10° S 19:12:11 25° SSE 19:12:11 25° SSE visible
05 Mar 10.0 03:43:31 10° NNE 03:45:54 14° NE 03:48:17 10° ENE visible
05 Mar 7.1 05:21:50 10° NW 05:26:26 67° WSW 05:31:00 10° SSE visible
05 Mar 6.9 19:29:07 10° SSW 19:33:36 85° ESE 19:33:39 84° E visible
06 Mar 9.1 04:02:06 10° N 04:06:06 28° NE 04:10:04 10° ESE visible
06 Mar 8.6 18:10:50 10° SSE 18:13:44 17° ESE 18:16:41 10° ENE visible
06 Mar 8.3 19:49:15 10° SW 19:53:28 40° NW 19:55:07 29° N visible
